Regional Weather Roundup
Issued by NWS Bismarck, ND

Home | Current Version | Previous Version | Text Only | Print | Product List | Glossary On
Versions: 1 2 3 4 5 6 7 8 9 10 11 12 13 14 15 16 17 18 19 20 21 22 23 24 25 26 27 28 29 30 31 32 33 34 35 36 37 38 39 40 41 42 43 44 45 46 47 48 49 50
000
ASUS43 KBIS 201420
RWRBIS

NWR BROADCAST TEXT
NATIONAL WEATHER SERVICE BISMARCK ND
900 AM CDT SAT SEP 20 2014

NOTE: "FAIR" INDICATES FEW OR NO CLOUDS BELOW 12,000 FEET WITH NO
SIGNIFICANT WEATHER AND/OR OBSTRUCTIONS TO VISIBILITY.


CITY           SKY/WX    TMP DP  RH WIND       PRES   REMARKS
WILLISTON      PTSUNNY   57  50  77 N8        29.94R
MINOT          PTSUNNY   59  51  75 W18       29.86R
MINOT AFB      DRIZZLE   57  54  88 NW29G38   29.85R
BISMARCK       PTSUNNY   58  52  80 SW7       29.88R
DICKINSON      MOSUNNY   56  48  74 W15       29.93R
GARRISON         N/A     58  56  93 W6        29.84F
HETTINGER ARPT SUNNY     58  47  66 W17G24    29.98R
JAMESTOWN      SUNNY     57  54  89 W6        29.83F
BEACH            N/A     57  46  67 W18G29    30.00R
CARRINGTON     FAIR      55  55 100 SW5       29.83S
CROSBY         FAIR      54  54 100 NW10      29.91F
HARVEY         FAIR      57  57 100 W13       29.82R
HAZEN          PTSUNNY   54  50  87 SW12      29.88R
LINTON         FAIR      57  54  88 W3        29.89S
MANDAN         PTSUNNY   54  50  87 SW6       29.89R
OAKES            N/A     59  59 100 SW9       29.86S
RUGBY          FAIR      52  52 100 W8        29.81R
STANLEY        PTSUNNY   54  54 100 NW12G25   29.90S
TIOGA          CLOUDY    54  54 100 N9        29.93F
WATFORD CITY   FAIR      55  50  82 N9        29.95R
$$

CITY           SKY/WX    TMP DP  RH WIND       PRES   REMARKS
GRAND FORKS    MOSUNNY   56  53  90 S5        29.80S
GRAND FORKS AF SUNNY     56  56  99 SW6       29.81S
DEVILS LAKE    MOSUNNY   59  52  77 W8        29.78F
FARGO          SUNNY     56  53  90 SW5       29.83R
CANDO          FAIR      55  54  94 W8        29.79S
CAVALIER       CLOUDY    54  54 100 S9        29.78S FOG
GRAFTON        CLOUDY    52  52 100 W6        29.79R FOG
GWINNER        SUNNY     59  59 100 SW7       29.87S
LANGDON        CLOUDY    54  54 100 SW6       29.77F
ROLLA          FAIR      54  54 100 NW25G33   29.81R
$$

CITY           SKY/WX    TMP DP  RH WIND       PRES   REMARKS
ABERDEEN       SUNNY     62  54  74 CALM      29.89R
MOBRIDGE       SUNNY     57  53  86 CALM      29.89S
BUFFALO          N/A     61  46  57 W21       29.98R
RAPID CITY     SUNNY     63  48  58 W5        30.08R
GLASGOW        SUNNY     52  46  80 NW8       30.07R
SIDNEY         SUNNY     57  48  72 NW9       30.02R
WOLF POINT     SUNNY     56  49  77 W6        30.03R
MILES CITY     SUNNY     56  44  64 NW8       30.09R
BAKER          SUNNY     56  45  66 W13       30.04R
$$

CITY           SKY/WX    TMP DP  RH WIND       PRES   REMARKS
BILLINGS       PTCLDY    55  41  59 SW8       30.21R
GREAT FALLS    PTCLDY    48  41  76 CALM      30.22R
REGINA         MOSUNNY   52  50  93 W13G20    29.92R
ESTEVAN        PTSUNNY   52  52 100 NW8       29.89
$$




USA.gov is the U.S. government's official web portal to all federal, state and local government web resources and services.